Location: Clermont
(50.2608°N, 4.3172°E)
Time: 16:38:58
(UTC+00:00)

Meteor 2-4 Rocket - Pass Details

Date: 13 August 2020
Orbit: 798 x 909 km, 81.2° (Epoch: 19 September)

Event Time Altitude Azimuth Distance (km) Brightness Sun altitude
Rises 21:55:39 0° 343° (NNW) 3,452 8.3 -20.9°
Reaches altitude 10° 21:58:12 10° 337° (NNW) 2,493 7.3 -21.1°
Maximum altitude 22:03:32 45° 267° (W) 1,130 4.5 -21.5°
Enters shadow 22:06:13 26° 211° (SSW) 1,580 4.8 -21.7°
